Regional Weather Roundup
Issued by NWS Wilmington, NC

Home | Current Version | Previous Version | Text Only | Print | Product List | Glossary On
Versions: 1 2 3 4 5 6 7 8 9 10 11 12 13 14 15 16 17 18 19 20 21 22 23 24 25 26 27
000
ASUS42 KILM 192313
RWRILM
RWRILM
REGIONAL HOURLY WEATHER ROUNDUP
NATIONAL WEATHER SERVICE WILMINGTON NC
600 PM EST FRI JAN 19 2018

NOTE: "FAIR" INDICATES FEW OR NO CLOUDS BELOW 12,000 FEET WITH NO
SIGNIFICANT WEATHER AND/OR OBSTRUCTIONS TO VISIBILITY.

...............WFO WILMINGTON COUNTY WARNING AREA...............

......COASTAL NC AND SC COUNTIES......

CITY           SKY/WX    TMP DP  RH WIND       PRES   REMARKS
WILMINGTON     FAIR      49  29  46 S8        30.17S
N MYRTLE BEACH FAIR      44  37  76 SW9       30.18S
MYRTLE BEACH   FAIR      48  35  60 SW5       30.20R

......INLAND NC AND SC COUNTIES.......

CITY           SKY/WX    TMP DP  RH WIND       PRES   REMARKS
LUMBERTON      FAIR      50  23  34 SW5       30.16S
ELIZABETHTOWN  NOT AVBL
WHITEVILLE     FAIR      51  22  31 CALM      30.17R
FLORENCE       FAIR      53  16  23 SW5       30.17F
DARLINGTON     FAIR      51  23  33 W3        30.18R
KINGSTREE      FAIR      46  23  39 CALM      30.18S
HARTSVILLE     FAIR      43  27  52 CALM      30.17S
BENNETTSVILLE  FAIR      50  30  46 CALM      30.17S
CONWAY         FAIR      43  30  61 CALM      30.18S
GEORGETOWN     FAIR      48  32  53 S7        30.21R
MARION         FAIR      45  25  45 CALM      30.17S

....................REST OF NORTH CAROLINA......................

.........EASTERN NC.........

CITY           SKY/WX    TMP DP  RH WIND       PRES   REMARKS
CAPE HATTERAS  FAIR      49  40  71 SW9       30.13F
JACKSONVILLE   FAIR      47  27  45 SW3       30.15F
MOREHEAD CITY  FAIR      46  41  82 SW8       30.15F
KENANSVILLE    FAIR      41  27  56 CALM      30.15S
NEW BERN       FAIR      49  23  36 CALM      30.15S
ELIZABETH CITY FAIR      44  29  55 S8        30.10F

.........CENTRAL NC.........

CITY           SKY/WX    TMP DP  RH WIND       PRES   REMARKS
RALEIGH DURHAM FAIR      42  24  49 SW6       30.13F
ROCKY MOUNT    NOT AVBL
ROANOKE RAPIDS NOT AVBL
FAYETTEVILLE   FAIR      48  25  40 SW5       30.16R
HOFFMAN        FAIR      41  25  52 W3        30.16S

.........WESTERN NC.........

CITY           SKY/WX    TMP DP  RH WIND       PRES   REMARKS
CHARLOTTE      FAIR      49  20  31 SW5       30.16S
GREENSBORO     FAIR      44  12  27 SW7       30.12S
HICKORY        NOT AVBL
BOONE          NOT AVBL
ASHEVILLE      NOT AVBL

.....................REST OF SOUTH CAROLINA.....................

.........EASTERN SC.........

CITY           SKY/WX    TMP DP  RH WIND       PRES   REMARKS
CHARLESTON     FAIR      51  24  34 SW9       30.21R
BEAUFORT MCAS  FAIR      47  38  71 SE5       30.23R
HILTON HEAD    CLEAR     46  34  61 S6        30.24F

.........CENTRAL SC.........

CITY           SKY/WX    TMP DP  RH WIND       PRES   REMARKS
COLUMBIA       FAIR      51  27  39 VRB3      30.18S
ORANGEBURG     FAIR      50  17  27 W5        30.19S
SUMTER SHAW    FAIR      53  21  29 SW3       30.16S

.........WESTERN SC.........

CITY           SKY/WX    TMP DP  RH WIND       PRES   REMARKS
GREENVILLE     NOT AVBL
ROCK HILL      FAIR      45  23  42 W3        30.17S
ANDERSON       FAIR      53   9  17 SW6       30.17S
CLEMSON        NOT AVBL
GREENWOOD      FAIR      48  17  29 W3        30.19S


...................COASTAL AND OFFSHORE REPORTS..................

................LOCAL PIERS AND NC RESERVE................


STATION/POSITION TIME  SKY/WX   TEMP    WIND        PRES    VSBY
                                AIR SEA DIR/SP/G
                 (UTC)          (F)     (DEG/KT/KT) (MB)    (MI)
JOHNY MRCER PIER 2242               48              1021.5F
NC RESRV MASNBRO 2145                   240/  5     1021.0
OCEAN CREST PIER NOT AVBL
SPRINGMAID  PIER 2242                               1025.2S


................COASTAL AND OFFSHORE BUOYS................


STATION/POSITION TIME  SKY/WX   TEMP    WIND        PRES    VSBY
                                AIR SEA DIR/SP/G
                 (UTC)          (F)     (DEG/KT/KT) (MB)    (MI)
DIMNDSHOAL 41025 2300            57     250/ 14/ 19 1020.7
CAPE LOOKOUT     2300                   220/  9/ 12 1021.3F
ONSLOW BAY 41036 NOT AVBL
ONSLOW BAY 41064 2208            54 58  230/ 12/ 14 1021.8F
ONSLOW BAY 41159 2230               57                N/A
WVE H/P(F/S)=  4/ 5 SWL H/P/D(F/S/D)=  2/110/11

MASNBO INL 41110 2229               45                N/A
WVE H/P(F/S)=  2/11

WILM HARBR 41108 2230               46                N/A
WVE H/P(F/S)=  3/ 5

27SE WRITB 41037 2208            53 60  240/ 16/ 21 1022.0F
FRYING PAN 41013 2300            57 62  240/ 16/ 19 1022.1
SUNST NRSH 41024 2208            47     250/  4/  6 1022.1F
CAPRS NRSH 41029 2208            47 49  230/ 14/ 19 1022.6F
EDISTO     41004 2300            57 69  230/ 16/ 19 1023.1


..........OFFSHORE BUOYS BEYOND 100 NM OFFSHORE...........
.....IN A TRIANGLE---HAT TO BERMUDA TO BAHAMAS TO HAT.....


STATION/POSITION TIME  SKY/WX   TEMP    WIND        PRES    VSBY
                                AIR SEA DIR/SP/G
                 (UTC)          (F)     (DEG/KT/KT) (MB)    (MI)
150E HAT   41001 NOT AVBL
W BERMUDA  41048 2300            64 70  310/ 12/ 16 1023.2
ATLANTIC S 41049 2250            70 76  340/ 12/ 17 1021.2R
WVE H/P(F/S)= 14/11 SWL H/P/D(F/S/D)= 13/300/11

E BAHAMAS  41046 2300            73 78   30/ 16/ 19 1020.4
NE BAHAMAS 41047 2250            67      50/  8/ 14 1023.4R
WVE H/P(F/S)= 12/13 SWL H/P/D(F/S/D)= 11/13

120E CANVRL41010 NOT AVBL

END




USA.gov is the U.S. government's official web portal to all federal, state and local government web resources and services.